Location: Melizzano
(41.1500°N, 14.5000°E)
Time: 09:26:06
(UTC+00:00)

Cosmos 1709 Rocket - Pass Details

Date: 01 October 2021
Orbit: 948 x 1002 km, 82.9° (Epoch: 27 October)

Event Time Altitude Azimuth Distance (km) Brightness Sun altitude
Rises 17:25:18 0° 225° (SW) 3,647 7.7 -8.6°
Reaches altitude 10° 17:28:26 10° 241° (WSW) 2,696 7.3 -9.2°
Maximum altitude 17:33:04 22° 290° (WNW) 1,964 6.7 -10.1°
Drops below altitude 10° 17:37:42 10° 339° (NNW) 2,686 6.7 -11.0°
Sets 17:40:50 0° 355° (N) 3,632 7.1 -11.6°
